Regional Weather Roundup
Issued by NWS

Home | Current Version | Previous Version | Graphics & Text | Print | Product List | Glossary On
Versions: 1 2 3 4 5 6 7 8 9 10 11 12 13 14 15 16 17 18 19 20 21 22 23 24 25 26 27 28 29 30 31 32 33 34 35 36 37 38 39 40 41 42 43 44 45 46 47 48 49 50
000
ASUS43 KMKX 270300
RWRWI

WISCONSIN REGIONAL WEATHER ROUNDUP
NATIONAL WEATHER SERVICE MILWAUKEE/SULLIVAN WI
1000 PM CDT TUE MAY 26 2015

NOTE: "FAIR" INDICATES FEW OR NO CLOUDS BELOW 12,000 FEET WITH NO
SIGNIFICANT WEATHER AND/OR OBSTRUCTIONS TO VISIBILITY.

WIZ001-002-006>008-014>016-023>028-270400-
NORTHWEST WISCONSIN

CITY           SKY/WX    TMP DP  RH WIND       PRES   REMARKS
SUPERIOR ARPT  CLOUDY    51  50  97 CALM      29.78R
ASHLAND        LGT RAIN  52  52 100 CALM      29.78R
HAYWARD        LGT RAIN  54  52  93 N6        29.76S
SIREN          CLOUDY    55  55  98 NW3       29.78R
CUMBERLAND     RAIN      54  52  94 CALM      29.76R
RICE LAKE      LGT RAIN  55  53  91 NW5       29.76R
CHETEK         LGT RAIN  56  55  99 NW3       29.75R
LADYSMITH      RAIN      56  55  96 N12       29.73S
EAU CLAIRE     NOT AVBL
MENOMONIE      DRIZZLE   58  58  99 W7        29.75R
NEW RICHMOND   DRIZZLE   56  56 100 NW7       29.78R
OSCEOLA        CLOUDY    56  56 100 NW7       29.81R
$$

WIZ003>005-009-010-017-018-270400-
NORTH CENTRAL WISCONSIN

CITY           SKY/WX    TMP DP  RH WIND       PRES   REMARKS
MANITOWISH WTR DRIZZLE   55  55 100 NE5       29.72R
ARBOR VITAE    RAIN      59  58  96 N3        29.70S
WOODRUFF       RAIN      59  58  96 N3        29.70S
RHINELANDER    LGT RAIN  60  58  92 N6        29.67F
EAGLE RIVER    RAIN      58  58 100 N8        29.69S
LAND O LAKES   RAIN      58  58  99 N5        29.72R
PHILLIPS       RAIN      57  56  99 N7        29.70R
TOMAHAWK       CLOUDY    59  58  95 N3        29.68R
MEDFORD        LGT RAIN  60  59  96 N10G18    29.67R
MERRILL        RAIN      61  61 100 N9        29.66R
$$

WIZ029-030-035-036-043>047-270400-
CENTRAL WISCONSIN

CITY           SKY/WX    TMP DP  RH WIND       PRES   REMARKS
WAUSAU         CLOUDY    63  61  93 CALM      29.62R
MOSINEE        CLOUDY    63  63 100 N5        29.64R
MARSHFIELD     LGT RAIN  63  60  90 NW13      29.63R FOG
STEVENS POINT  CLOUDY    61  60  98 NE6       29.63R
WAUPACA        DRIZZLE   66  65  96 SW15      29.63R
WAUTOMA        NOT AVBL
WISC RAPIDS    LGT RAIN  62  60  93 SW12      29.62R FOG
CAMP DOUGLAS   MOCLDY   N/A N/A N/A W16         N/A
$$

WIZ011>013-019>022-031-037>040-048>050-270400-
NORTHEAST WISCONSIN

CITY           SKY/WX    TMP DP  RH WIND       PRES   REMARKS
ANTIGO         CLOUDY    60  60  99 N5        29.64R
SHAWANO        CLOUDY    67  65  93 CALM      29.61S
OCONTO         MOCLDY    59  59 100 SE5       29.62S
STURGEON BAY   MOCLDY    52  46  82 S9        29.67S
GREEN BAY      CLOUDY    67  62  84 S15G23    29.63S
MANITOWOC      NOT AVBL
APPLETON       CLOUDY    64  63  94 SW20G26   29.65R
CLINTONVILLE   MOCLDY    64  63  94 S6        29.61S
OSHKOSH        CLOUDY    65  57  75 SW14G28   29.67R
$$

WIZ032>034-041-042-053>061-270400-
SOUTHWEST WISCONSIN

CITY           SKY/WX    TMP DP  RH WIND       PRES   REMARKS
LA CROSSE      CLOUDY    63  58  83 W12G20    29.75R
SPARTA         CLOUDY    60  58  94 W7        29.73R
VIROQUA        CLOUDY    60  60 100 W12       29.77R
BOSCOBEL       PTCLDY    63  59  87 SW6       29.78R
PRAIRIE DU CHI MOCLDY    63  57  81 W5        29.78R
PLATTEVILLE    PTCLDY    62  59  90 SW6       29.80R
$$

WIZ056-057-062-063-064-067-068-270400-
SOUTH CENTRAL WISCONSIN

CITY           SKY/WX    TMP DP  RH WIND       PRES   REMARKS
REEDSBURG      CLOUDY    62  58  88 SW16      29.74R
BARABOO/DELLS  CLOUDY    62  56  80 W15       29.73R
LONE ROCK      NOT AVBL
MINERAL POINT  CLEAR     63  59  88 SW9       29.80R
MADISON        PTCLDY    64  57  78 SW7       29.77R
MIDDLETON      CLEAR     64  58  81 SW10      29.77R
WATERTOWN      CLEAR     63  61  94 SW13G20   29.76R
MONROE         MOCLDY    63  59  88 SW9       29.80R
JANESVILLE     PTCLDY    64  61  88 SW6       29.79R
$$

WIZ051-052-058>065-066-070>072-270400-
SOUTHEAST WISCONSIN

CITY           SKY/WX    TMP DP  RH WIND       PRES   REMARKS
MILWAUKEE      PTCLDY    67  56  67 SW14G22   29.78R
WAUKESHA       CLEAR     63  55  77 SW13      29.78R
MILWAUKEE/TIMM CLEAR     66  54  63 SW16G24   29.77R
RACINE         CLEAR     67  58  72 SW9       29.80R
BURLINGTON     CLEAR     62  57  85 SW7       29.80R
KENOSHA        CLEAR     66  59  78 SW14      29.81R
FOND DU LAC    CLOUDY    65  57  75 SW17G30   29.70R
SHEBOYGAN      MOCLDY    65  57  75 SW16G29   29.70R
WEST BEND      PTCLDY    64  55  72 SW10G22   29.74R
JUNEAU         PTCLDY    63  58  85 SW14G24   29.75R
$$

LSZ147-162-270400-
LAKE SUPERIOR

STATION/POSITION TIME  TEMP    WIND        PRES    WAVE
                       AIR SEA DIR/SP/G            HT/PER
                 (UTC) (F)     (DEG/KT/KT) (MB)    (FT/S)
W MID LAKE BUOY  0150   41 37  360/  6/  6 1082.0F   0
DEVILS ISLAND    0200   47     310/  3/  4 1081.0F
PORT WING        0240   51     180/  2/  3 1088.0R
SAXON HARBOR     0240   46        CALM     1081.0R
$$

LMZ867-665-643>646-270400-
LAKE MICHIGAN

STATION/POSITION TIME  TEMP    WIND        PRES    WAVE
                       AIR SEA DIR/SP/G            HT/PER
                 (UTC) (F)     (DEG/KT/KT) (MB)    (FT/S)
CHAMBERS ISLAND  0200   56     100/  6/ 12 1041.0F
N MID LAKE BUOY  0150   46 37  140/ 10/ 12 1057.0F   2/ 4
NORTHPORT PIER   0200   47     140/  7/ 11 1051.0F
SISTER BAY       0248   51     170/ 12/ 19   N/A
ALGOMA LAKESHORE 0038          190/  6/  9   N/A
KEWAUNEE LAKESHO 0200   47     180/  9/ 11 1038.0F
SHEBOYGAN LAKESH 0200          220/ 25/ 33 1052.0R
PORT WASHINGTON  0240   68     250/ 12/ 19 1075.0R
ATWATER BUOY     0200   67 46  230/ 17/ 21 1086.0R
MILWAUKEE LAKESH 0200   70     230/ 19/ 23   N/A
S MID LAKE BUOY  0150   47 38  200/ 12/ 14 1090.0R   2/ 4
KENOSHA   LAKESH 0200   70     230/ 10/ 18 1085.0R
$$

TC  - TEMPERATURE IN CELSIUS
VSB - VISIBILITY IN STATUTE MILES
WCI - WIND CHILL INDEX
HX  - HEAT INDEX




USA.gov is the U.S. government's official web portal to all federal, state and local government web resources and services.